This demonstration page uses our WeatherBlox Daily Observations layout. Learn more.

40.92501, -98.34201

Hourly Observations for August 18, 2019

Temp ( °F °C ) Dew Point ( °F °C ) Humidity (%) Winds ( mph kmh ) Pressure ( in mb ) Visibility ( mi km ) Precip ( " mm )
12:53 am 00:53 Clear 76 24.4 71 21.7 85 85 S 8 13 29.63 1003 10 16.0934 0 0
1:53 am 01:53 Clear 74 23.3 70 21.1 88 88 S 5 7 29.61 1003 9 14.48406 0 0
2:53 am 02:53 Mostly Cloudy 74 23.3 71 21.7 91 91 NW 8 13 29.67 1005 10 16.0934 0 0
3:12 am 03:12 Mostly Cloudy 74 23.3 71 21.7 91 91 N 5 7 29.65 1004 9 14.48406 0 0
3:23 am 03:23 Mostly Cloudy 72 22.2 67 19.4 84 84 N 17 28 29.67 1005 10 16.0934 0 0
3:53 am 03:53 Mostly Cloudy 69 20.6 65 18.3 87 87 N 14 22 29.69 1006 10 16.0934 0 0
4:26 am 04:26 Partly Cloudy 68 20 64 17.8 87 87 N 9 15 29.69 1005 10 16.0934 0 0
4:53 am 04:53 Mostly Clear 67 19.4 63 17.2 87 87 NNW 12 19 29.72 1007 10 16.0934 0 0
5:40 am 05:40 Mostly Cloudy 66 18.9 62 16.7 87 87 N 12 19 29.74 1007 10 16.0934 0 0
5:53 am 05:53 Cloudy 66 18.9 61 16.1 84 84 N 14 22 29.75 1008 10 16.0934 0 0
6:53 am 06:53 Cloudy 65 18.3 60 15.6 84 84 N 14 22 29.78 1009 10 16.0934 0 0
7:34 am 07:34 Cloudy 65 18.3 60 15.6 84 84 N 14 22 29.82 1010 10 16.0934 0 0
7:53 am 07:53 Cloudy 65 18.3 60 15.6 84 84 NNW 13 20 29.84 1010 10 16.0934 0 0
8:03 am 08:03 Cloudy 65 18.3 60 15.6 84 84 NNW 15 24 29.83 1010 10 16.0934 0 0
8:35 am 08:35 Cloudy 66 18.9 60 15.6 81 81 NNW 15 24 29.88 1012 10 16.0934 0 0
8:53 am 08:53 Cloudy 66 18.9 60 15.6 81 81 N 13 20 29.91 1013 10 16.0934 0 0
9:36 am 09:36 Partly Cloudy 69 20.6 61 16.1 76 76 N 15 24 29.87 1011 10 16.0934 0 0
9:53 am 09:53 Partly Cloudy 69 20.6 60 15.6 73 73 NNW 16 26 29.89 1012 10 16.0934 0 0
10:09 am 10:09 Mostly Cloudy 69 20.6 60 15.6 73 73 N 17 28 29.89 1012 10 16.0934 0 0
10:53 am 10:53 Mostly Cloudy 72 22.2 60 15.6 66 66 N 15 24 29.92 1013 10 16.0934 0 0
11:35 am 11:35 Partly Cloudy 72 22.2 61 16.1 68 68 N 14 22 29.88 1012 10 16.0934 0 0
11:53 am 11:53 Partly Cloudy 71 21.7 61 16.1 71 71 NNE 14 22 29.92 1013 10 16.0934 0 0
12:03 pm 12:03 Mostly Cloudy 72 22.2 60 15.6 66 66 NNE 12 19 29.88 1012 10 16.0934 0 0
12:53 pm 12:53 Cloudy 72 22.2 61 16.1 68 68 NNE 8 13 29.92 1013 10 16.0934 0 0
1:53 pm 13:53 Mostly Cloudy 74 23.3 62 16.7 67 67 N 8 13 29.91 1013 10 16.0934 0 0
2:01 pm 14:01 Partly Cloudy 74 23.3 63 17.2 69 69 NE 6 9 29.86 1011 10 16.0934 0 0
2:29 pm 14:29 Mostly Cloudy 73 22.8 62 16.7 69 69 N 12 19 29.86 1011 10 16.0934 0 0
2:53 pm 14:53 Cloudy 74 23.3 63 17.2 69 69 N 12 19 29.91 1013 10 16.0934 0 0
3:53 pm 15:53 Cloudy 75 23.9 62 16.7 64 64 N 7 11 29.91 1013 10 16.0934 0 0
4:53 pm 16:53 Cloudy 75 23.9 62 16.7 64 64 N 5 7 29.9 1013 10 16.0934 0 0
5:22 pm 17:22 Cloudy 75 23.9 63 17.2 66 66 NE 6 9 29.85 1011 10 16.0934 0 0
5:29 pm 17:29 Cloudy 74 23.3 64 17.8 71 71 NE 6 9 29.85 1011 10 16.0934 0 0
5:53 pm 17:53 Cloudy 74 23.3 64 17.8 71 71 ENE 7 11 29.9 1013 10 16.0934 0 0
6:25 pm 18:25 Cloudy 73 22.8 65 18.3 76 76 ENE 5 7 29.84 1011 10 16.0934 0 0
6:53 pm 18:53 Cloudy 73 22.8 64 17.8 74 74 ENE 6 9 29.9 1013 10 16.0934 0 0
7:38 pm 19:38 Partly Cloudy 71 21.7 64 17.8 79 79 E 6 9 29.86 1011 10 16.0934 0 0
7:53 pm 19:53 Sunny 70 21.1 64 17.8 82 82 E 5 7 29.91 1013 10 16.0934 0 0
8:53 pm 20:53 Clear 68 20 63 17.2 84 84 E 6 9 29.93 1014 10 16.0934 0 0
9:53 pm 21:53 Clear 66 18.9 62 16.7 87 87 ESE 6 9 29.95 1014 10 16.0934 0 0
10:53 pm 22:53 Clear 65 18.3 62 16.7 90 90 ESE 6 9 29.95 1014 10 16.0934 0 0
11:53 pm 23:53 Clear 65 18.3 61 16.1 87 87 Calm 29.97 1015 10 16.0934 0 0

Powered by AerisWeather